Location: Misciano
(43.5000°N, 11.9500°E)
Time: 22:56:33
(UTC+00:00)

USA 234 - Pass Details

Date: 13 August 2020
Orbit: 1101 x 1107 km, 123.0° (Epoch: 22 September)

Event Time Altitude Azimuth Distance (km) Brightness Sun altitude
Exits shadow 21:58:06 68° 214° (SW) 1,175 3.2 -29.4°
Maximum altitude 21:58:15 69° 223° (SW) 1,173 3.2 -29.5°
Drops below altitude 10° 22:04:47 10° 307° (NW) 2,964 6.2 -29.9°
Sets 22:07:18 0° 310° (NW) 3,925 7.0 -30.0°
